Weather in Borova

Ukraine / Kyiv Region     50°10′23″N   30°06′13″E
temp.,
°C
wind,
m/s
gust,
m/s
humid.,
%
clouds,
%
prec.,
mm/h
press.,
hPa
HPBL,
m
18 september, sat
sat1800:00+16s4118688 0.1 1006306
03:00+16s3991100 0.4 1005309
06:00+16sse4109690 0.6 1004383
09:00+17s61187100 0.6 1003663
12:00+16ssw5886100 0.1 1004716
15:00+16w597215 0.3 1005823
18:00+17w576789 0.0 1006848
21:00+15w487293 0.0 1007652
19 september, sun
sun1900:00+11wsw369112 0.0 1008153
03:00+10w3791100 0.0 1008279
06:00+11ssw2383100 0.0 1008135
09:00+12ssw3680100 0.0 1008360
12:00+13sw4786100 0.6 1008673
15:00+10w4789100 1.1 1009489
18:00+8wsw3792100 0.5 1009502
21:00+8wsw3688100 0.7 1009475
20 september, mon
mon2000:00+7wsw3793100 0.2 1009506
03:00+7w4792100 0.4 1009576
06:00+7w4691100 0.0 1009828
09:00+7w4690100 0.0 1009520
12:00+8w4684100 0.0 1010564
15:00+10w5884100 0.1 1010783
18:00+8wnw51092100 0.1 1011713
21:00+7wnw61192100 0.1 1013692
21 september, tue
tue2100:00+7wnw61192100 0.1 1014579
03:00+6w51090100 0.1 1014618
06:00+5wnw51090100 0.1 1015575
09:00+5wnw51090100 0.1 1015599
12:00+4wnw61096100 0.3 1017817
15:00+5wnw61096100 0.8 1018850
18:00+5wnw61196100 0.3 1018875
21:00+5wnw61196100 0.3 1020861
22 september, wed
wed2200:00+6wnw61191100 0.1 1020822
03:00+6wnw61090100 0.1 1019944
06:00+5wnw4891100 0.1 1019961
09:00+6nw5889100 0.1 1019958
12:00+6nw5788100 0.1 1019915
15:00+7nw5886100 0.2 1019691
18:00+8nw3873100 0.0 1018982
21:00+7nnw4876100 0.1 1018957